Regional Weather Roundup
Issued by NWS

Home | Current Version | Previous Version | Graphics & Text | Print | Product List | Glossary On
Versions: 1 2 3 4 5 6 7 8 9 10 11 12 13 14 15 16 17 18 19 20 21 22 23 24 25 26 27 28 29 30 31 32 33 34 35 36 37 38 39 40 41 42 43 44 45 46 47 48 49 50
000
ASUS45 KTFX 312310
RWRMT
MONTANA REGIONAL WEATHER ROUNDUP
NATIONAL WEATHER SERVICE GREAT FALLS MT
500 PM MDT FRI JUL 31 2015

NOTE: "FAIR" INDICATES FEW OR NO CLOUDS BELOW 12000 FEET WITH NO
SIGNIFICANT WEATHER AND/OR OBSTRUCTIONS TO VISIBILITY.

MTZ001>007-043-010000-
WEST OF THE DIVIDE

CITY           SKY/WX    TMP DP  RH WIND       PRES   REMARKS
KALISPELL      CLEAR     93  34  12 S17       30.04F
MISSOULA       SUNNY     93  31  11 VRB5      30.09F
BUTTE          SUNNY     85  30  13 NW8       30.27F
MULLAN PASS    SUNNY     83  29  14 NW5       30.31F
DEER LODGE       N/A     90  30  12 CALM      30.24F
EUREKA           N/A     97  28   9 W13G21    30.01F HX  91
HAMILTON         N/A     93  32  11 NE3       30.12F
LIBBY            N/A     97  25   7 W9G17     30.02F HX  90
PLAINS           N/A     99  37  11 SW10      30.03F HX  94
RONAN            N/A     94  35  12 SE6       30.12F
$$

MTZ008-052>055-010000-
SOUTHWEST MONTANA

CITY           SKY/WX    TMP DP  RH WIND       PRES   REMARKS
BOZEMAN        SUNNY     89  31  12 CALM      30.19F
DILLON         SUNNY     89  32  13 NE8       30.22F
W YELLOWSTONE  SUNNY     81  32  17 SW6       30.35F
THREE FORKS      N/A     92  30  11 NE8       30.14F
TWIN BRIDGES     N/A     89  41  18 S7        30.17F
$$

MTZ009-010-012-014-046-048-049-054-010000-
EAST SLOPES AND CENTRAL MONTANA

CITY           SKY/WX    TMP DP  RH WIND       PRES   REMARKS
CUT BANK       SUNNY     92  23   8 W9        30.09F
GREAT FALLS    SUNNY     91  25   9 VRB3      30.11F
MALMSTROM AFB  SUNNY     90  29  11 W9G16     30.10F
HELENA         SUNNY     93  27   9 VRB5G20   30.12F
CONRAD           N/A     92  34  13 SE5       30.11F
$$

MTZ011-013-016-021-045-047-050-051-010000-
NORTH CENTRAL MONTANA

CITY           SKY/WX    TMP DP  RH WIND       PRES   REMARKS
HAVRE          SUNNY     92  35  13 NW14G22   30.03F
LEWISTOWN      SUNNY     89  40  17 N12       30.16F
CHINOOK          N/A     91  37  15 W10G16    30.02F
FORT BENTON      N/A     93  34  12 NW8       30.05F
$$

MTZ017>020-022>027-061-062-010000-
NORTHEAST MONTANA

CITY           SKY/WX    TMP DP  RH WIND       PRES   REMARKS
GLASGOW        SUNNY     94  42  16 W10G23    30.00F HX  90
JORDAN           N/A     93  37  14 NW10G22   30.02F
SIDNEY         SUNNY    N/A N/A N/A SE6       30.03F
WOLF POINT     SUNNY     94  45  18 E8        30.00F HX  90
MALTA            N/A     93  49  22 SW13      29.98F
PLENTYWOOD       N/A     84  48  28 N3        30.06F
POPLAR           N/A     93  43  17 CALM      30.01F
SCOBEY           N/A     88  48  24 SE3       30.04F
$$

MTZ028>42-056>058-010000-
SOUTHCENTRAL AND SOUTHEAST MONTANA

CITY           SKY/WX    TMP DP  RH WIND       PRES   REMARKS
BAKER          SUNNY     93  39  15 S10       30.09F
BILLINGS       MOSUNNY   94  33  11 VRB5      30.09F
LIVINGSTON     SUNNY     92  16   6 NW17      30.18F
MILES CITY     SUNNY     97  40  14 SW13      30.01F HX  92
EKALAKA          N/A     91  33  12 W7        30.08F
FORSYTH          N/A     95  36  12 W8G16     30.03F HX  90
LAUREL           N/A     95  36  12 W14       30.07F HX  90
ROUNDUP          N/A     94  31  10 W2        30.00F
$$

REGIONAL REPORTS...DAKOTAS

CITY           SKY/WX    TMP DP  RH WIND       PRES   REMARKS
WILLISTON      SUNNY     88  45  22 E5        30.06F
MINOT          SUNNY     82  47  29 NW8       30.05F
DICKINSON      SUNNY     88  43  20 SE6       30.07F
BEACH          FAIR      88  39  18 E3        30.09F
CROSBY         FAIR      81  46  30 N5        30.08F
BISMARCK       SUNNY     88  50  27 N8        30.06F
GRAND FORKS    MOSUNNY   81  48  31 NW15      29.98F
FARGO          SUNNY     83  55  38 NW13      30.00F
BUFFALO SD       N/A     90  40  17 SE12      30.05F
RAPID CITY     SUNNY     83  55  38 NE9       30.13F
$$

REGIONAL REPORTS...WYOMING/IDAHO/WASHINGTON

CITY           SKY/WX    TMP DP  RH WIND       PRES   REMARKS
GILLETTE       MOSUNNY   93  39  15 NE9       30.15F
SHERIDAN       SUNNY     93  36  13 VRB3      30.12F
BUFFALO WY     SUNNY     90  36  14 VRB6      30.20S
CODY           SUNNY     88  39  18 NE9       30.19F
YELLOWSTONE LA   N/A     76  32  20 VRB5      30.45F
IDAHO FALLS    SUNNY     89  28  11 VRB6      30.21F
SALMON         SUNNY     91  34  13 NE7       30.12F
BOISE          SUNNY     98  37  12 W10       30.07F HX  93
SPOKANE        MOSUNNY   99  25   7 SW14G25   30.03F HX  92
$$

REGIONAL REPORTS...ALBERTA

CITY           SKY/WX    TMP DP  RH WIND       PRES   REMARKS
EDMONTON       SUNNY     82  52  34 W7        29.97F
CALGARY        MOSUNNY   88  43  20 SE12G20   30.01F
LETHBRIDGE     MOSUNNY   93  36  13 W13G23    30.00F
MEDICINE HAT   MOSUNNY   93  39  15 SW12      30.00F
WATERTON GATE    N/A     90  37  15 SW9         N/A
CARDSTON         N/A     91  28  10 SW9G18      N/A
MILK RIVER       N/A     91  34  13 NE5         N/A
ONEFOUR          N/A     88  32  13 W8          N/A
$$

REGIONAL REPORTS...SASKATCHEWAN

CITY           SKY/WX    TMP DP  RH WIND       PRES   REMARKS
SWIFT CURRENT  SUNNY     81  50  34 E9G23     30.07F
REGINA         MOSUNNY   81  46  30 W7        30.08F
SASKATOON      MOSUNNY   79  50  36 SW8       30.06F
CYPRESS HILLS    N/A     81  36  19 NW6         N/A
VAL MARIE        N/A     86  45  23 W8G17       N/A
ROCKGLEN         N/A     82  50  32 NE5         N/A
ASSINIBOIA       N/A     79  52  38 S7          N/A
$$



USA.gov is the U.S. government's official web portal to all federal, state and local government web resources and services.